DELTA 1 DEB, 10825

Orbit data source: Space-Track

DELTA 1 DEB, 10825 is space debris in SSO originally from a launch on Thu, 29 Jul 1976 UTC launched from the Air Force Western Test Range (AFWTR). Debris objects in space refer to the collection of defunct objects orbiting the Earth. Examples of debris include non-operational satellites, rocket bodies, and fragments generated from explosions, collisions, or faulty payload assembly.

Loading next visibility...
Identifier
10825, 1976-077BV
Orbit
SSO
Country
Flag of USUS
Related business
Manufacturer
Unknown
Mission
Spacecraft
Bus & Motor
Unknown
Mass
Unknown
Launch date (UTC)
1976-07-29 (50 years ago)
Launch vehicle
Unknown
Launch site
Air Force Western Test Range (AFWTR)
Object type
Payload
Rocket body
Debris
Shape & HBR
Unknown shape, 0.4 m
Radar Cross Section
Medium (>0.1 m² and <1 m²)

Expand to show TLE details & history
Last TLE update: 6 hours ago

TLE from 6 hours ago
0 DELTA 1 DEB
1 10825U 76077BV  26256.15157394 -.00000004  00000-0  33046-3 0  9993
2 10825 102.2919 216.5474 0044722  42.8123 329.7590 12.34780719258158
Epoch: 2026-09-13T03:38Z
TLE epoch observation values (Epoch: 2026-09-13T03:38:15.988Z)
Latitude
11.98889°
Longitude
167.19146°
Altitude
1,500.075 km
Speed
7.129 km/s
True Right ascension
14h 15m 38s
True Declination
11° 55' 33"
Sunlit
Object was in daylight at epoch
Visualization orbit readout
Latitude
Unknown
Longitude
Unknown
Altitude
Unknown
Speed
Unknown
Apparent Right ascension
Unknown
Apparent Declination
Unknown
Sunlit
N/A
Visualization observer readout
Local Sidereal Time
02:33:59
Azimuth
Unknown
Elevation
Unknown
Doppler factor
Unknown
Orbital elements
Apogee altitude
1,561.756 km
Perigee altitude
1,491.054 km
Semi-major axis
7,904.542 km
Eccentricity
0.00447
Inclination
102.2919°
RAAN
216.5474°
Arg. of periapsis
42.8123°
True anomaly
329.49965°
Mean anomaly
329.759°
Eccentric anomaly
329.62945°
Mean motion
3.08836 °/min
Orbital period
116.57 mins
BSTAR
0.00033046
Loading maneuver chart data...
Computing Atmospheric mass density...
Loading historical data...
Loading historical data...
Loading historical data...
Loading historical data...
Loading historical data...
Loading historical data...
Loading historical data...

Documentation

Showing up to 5 results
|